This demonstration page uses our WeatherBlox Daily Observations layout. Learn more.

Left ArrowRight Arrow

31.84235, -102.49876

Hourly Observations for July 1, 2022

Temp ( °F °C ) Dew Point ( °F °C ) Humidity (%) Winds ( mph kmh ) Pressure ( in mb ) Visibility ( mi km ) Precip ( " mm )
12:53 am 00:53 Clear 85 29.4 56 13.3 37 37 S 13 20 29.86 1011 10 16 0.00 0.00
1:53 am 01:53 Clear 83 28.3 57 13.9 41 41 S 12 19 29.86 1011 10 16 0.00 0.00
2:53 am 02:53 Mostly Clear 82 27.8 57 13.9 42 42 S 9 15 29.85 1011 10 16 0.00 0.00
3:53 am 03:53 Clear 81 27.2 57 13.9 44 44 S 12 19 29.85 1011 10 16 0.00 0.00
4:53 am 04:53 Clear 79 26.1 57 13.9 47 47 S 10 17 29.85 1011 10 16 0.00 0.00
5:53 am 05:53 Clear 78 25.6 57 13.9 48 48 S 10 17 29.86 1011 10 16 0.00 0.00
6:53 am 06:53 Sunny 78 25.6 57 13.9 48 48 S 10 17 29.86 1011 10 16 0.00 0.00
7:53 am 07:53 Sunny 78 25.6 58 14.4 50 50 S 7 11 29.88 1012 10 16 0.00 0.00
8:53 am 08:53 Sunny 82 27.8 60 15.6 47 47 S 13 20 29.88 1012 10 16 0.00 0.00
9:53 am 09:53 Sunny 86 30 60 15.6 42 42 S 14 22 29.89 1012 10 16 0.00 0.00
10:53 am 10:53 Sunny 89 31.7 60 15.6 38 38 S 12 19 29.88 1012 10 16 0.00 0.00
11:53 am 11:53 Sunny 92 33.3 58 14.4 32 32 S 7 11 29.88 1012 10 16 0.00 0.00
12:53 pm 12:53 Partly Cloudy 93 33.9 54 12.2 27 27 undefined N/A 29.86 1011 10 16 0.00 0.00
1:53 pm 13:53 Sunny 95 35 51 10.6 23 23 SE 13 20 29.85 1011 10 16 0.00 0.00
2:53 pm 14:53 Sunny 97 36.1 47 8.3 18 18 VRB 6 9 29.82 1010 10 16 0.00 0.00
3:53 pm 15:53 Sunny 98 36.7 52 11.1 21 21 ESE 13 20 29.80 1009 10 16 0.00 0.00
4:53 pm 16:53 Mostly Sunny 95 35 50 10 22 22 E 9 15 29.79 1009 10 16 0.00 0.00
5:53 pm 17:53 Sunny 97 36.1 49 9.4 20 20 S 10 17 29.77 1008 10 16 0.00 0.00
6:53 pm 18:53 Partly Cloudy 98 36.7 50 10 20 20 ESE 18 30 29.75 1008 10 16 0.00 0.00
7:53 pm 19:53 Sunny 96 35.6 50 10 21 21 ESE 10 17 29.75 1008 10 16 0.00 0.00
8:53 pm 20:53 Sunny 93 33.9 51 10.6 24 24 SE 10 17 29.76 1008 10 16 0.00 0.00
9:53 pm 21:53 Clear 91 32.8 52 11.1 26 26 SSE 9 15 29.77 1008 10 16 0.00 0.00
10:53 pm 22:53 Clear 90 32.2 54 12.2 29 29 SSE 12 19 29.79 1009 10 16 0.00 0.00
11:53 pm 23:53 Clear 88 31.1 56 13.3 34 34 SSE 15 24 29.82 1010 10 16 0.00 0.00

Powered by AerisWeather